World > North America > United States > Texas

Quintana, Texas Regional Weather

Lat: 28.93N, Lon: 95.32W
Wx Zone: TXZ237Web Search

Helpful Tip: Type the letters wx in the search engine next time you need to find us.

Feedback


°F Click to change Quintana hourly weather to Imperial units.Click to change Quintana hourly weather to Metric units. °C
Quintana Weather Map
UTC Time: 4/11/2021, 03:10
Your Time:

Quintana, TX Regional Weather

Expires:202104110400;;361930
ASUS44 KSJT 110302
RWRSJT
WEST CENTRAL TEXAS REGIONAL WEATHER ROUNDUP
NATIONAL WEATHER SERVICE SAN ANGELO TX
1000 PM CDT SAT APR 10 2021

NOTE: "FAIR" INDICATES FEW OR NO CLOUDS BELOW 12,000 FEET WITH NO
SIGNIFICANT WEATHER AND/OR OBSTRUCTIONS TO VISIBILITY.


TXZ215-216-236-237-438-110400-
THE UPPER TEXAS COAST
  
CITY           SKY/WX    TMP DP  RH WIND       PRES   REMARKS
ORANGE         CLEAR     67  50  53 E3        29.79R                  
PORT ARTHUR    CLEAR     70  49  47 E3        29.77R                  
GALVESTON      CLEAR     71  66  84 NE5       29.78R                  
ANGLETON       CLEAR     64  62  93 NE3       29.78R FOG              
BAY CITY       CLEAR     66  47  49 NE6       29.78R                  
$$


SKY/WX - Weather  TMP - Temperature  DP - Dew Point  RH - Relative Humidity
WIND - Wind Direction/Speed PRES - Barometric Pressure VSB - Visibility
WCI - Wind Chill Index E13G22 Wind - East Wind 13 mph/Gusts of 22 mph